Zurück zum Katalog

COSMOS 2251 DEB

AktivLEO
NORAD 37487·DEBRIS·🇷🇺 Russia

Gestartet Jun 16, 1993 von Plesetsk Cosmodrome

Loading…

Nächste Überflüge (nächste 24 Stunden)

TLE

VeraltetSource: Space-Track

Epoche: Aug 24, 2026, 17:15 UTC

1 37487U 93036BLQ 26236.71898564  .00032948  00000-0  29822-2 0  9998
2 37487  73.8936  38.7336 0025808 168.1811 191.9984 14.95000550850391

Verfolge COSMOS 2251 DEB in Echtzeit mit AllMySat

Download on the App Store